This is the latest recevied weather packets stored in our database for station/object OK1FET-5. If no packets are shown the sender has not sent any weather packets the latest 10 day(s).
| Time | Temp. | Humidity | Pressure | Rain* | Wind** | Luminosity | Snow |
|---|---|---|---|---|---|---|---|
| 1777683051 | 10° C | 40% | 1026.4 hPa | - | - | - | - |
| 1777682463 | 10.56° C | 39% | 1026.3 hPa | - | - | - | - |
| 1777682169 | 10.56° C | 39% | 1026.4 hPa | - | - | - | - |
| 1777681875 | 10.56° C | 38% | 1026.4 hPa | - | - | - | - |
| 1777681581 | 11.11° C | 38% | 1026.4 hPa | - | - | - | - |
| 1777681286 | 11.11° C | 38% | 1026.4 hPa | - | - | - | - |
| 1777680992 | 11.67° C | 38% | 1026.4 hPa | - | - | - | - |
| 1777680698 | 11.67° C | 38% | 1026.4 hPa | - | - | - | - |
| 1777680404 | 11.67° C | 38% | 1026.4 hPa | - | - | - | - |
| 1777680109 | 11.67° C | 37% | 1026.4 hPa | - | - | - | - |
| 1777679815 | 11.11° C | 38% | 1026.4 hPa | - | - | - | - |
| 1777679521 | 11.11° C | 39% | 1026.5 hPa | - | - | - | - |
| 1777679226 | 11.11° C | 39% | 1026.6 hPa | - | - | - | - |
| 1777678933 | 11.11° C | 40% | 1026.5 hPa | - | - | - | - |
| 1777678638 | 11.11° C | 39% | 1026.5 hPa | - | - | - | - |
| 1777678344 | 10.56° C | 38% | 1026.6 hPa | - | - | - | - |
| 1777678050 | 11.11° C | 38% | 1026.6 hPa | - | - | - | - |
| 1777677461 | 11.67° C | 37% | 1026.7 hPa | - | - | - | - |
| 1777677167 | 11.67° C | 37% | 1026.7 hPa | - | - | - | - |
| 1777676873 | 11.67° C | 37% | 1026.5 hPa | - | - | - | - |
| 1777676578 | 12.22° C | 39% | 1026.5 hPa | - | - | - | - |
| 1777676284 | 12.22° C | 37% | 1026.5 hPa | - | - | - | - |
| 1777675990 | 12.22° C | 38% | 1026.5 hPa | - | - | - | - |
| 1777675695 | 11.67° C | 37% | 1026.5 hPa | - | - | - | - |
| 1777675401 | 11.67° C | 37% | 1026.5 hPa | - | - | - | - |
* Rain since midnight (hover to see other rain measurements)
** Current wind speed in m/s (hover to see current wind gust speed)